{"data":{"norad_id":68212,"epoch":"2026-09-19T02:04:34.703328Z","epoch_age_seconds":173716,"freshness":"STALE","line1":"1 68212U 26053F   26262.08651277  .00001844  00000+0  59448-4 0  9999","line2":"2 68212  97.2853 135.8368 0002049  89.9428 270.2050 15.33438975 29852","mean_motion":15.33438975,"eccentricity":0.0002049,"inclination_deg":97.2853,"raan_deg":135.8368,"arg_perigee_deg":89.9428,"mean_anomaly_deg":270.205,"bstar":5.9448e-5,"rev_number":2985,"period_min":93.906573621555,"perigee_km":464.15882695704,"apogee_km":466.96337443871,"semimajor_km":6843.6981006979,"source":"CELESTRAK","updated_at":"2026-09-20T09:00:43.833448Z"}}